^^
Daily Summary for June 08, 2021 Units:  English    Metric   Both
Daily Weekly Monthly Yearly Custom
  High: Low: Average:
Temperature: 72.0 °F 46.0 °F 58.2 °F
Dew Point: 41.0 °F 34.0 °F 38.2 °F
Humidity: 75% 26% 51%
Wind Speed: 21mph 0mph 8.7mph
Wind Gust: 21mph - -
Wind- - South
Pressure: 30.1 in 29.9 in -
Precipitation: 0.000 in    
Historical Graphs
 
 
Tabular Data for June 08, 2021
Time Temperature Dew Point Pressure Wind Wind Speed Wind Gust Humidity Rainfall Rate (Hourly) solar
00:04 54.0 °F 38.0 °F 29.9 in East 4 mph 6 mph 56% 0.000 in 0.00 W/m2
00:09 53.0 °F 38.0 °F 29.9 in ESE 6 mph 3 mph 56% 0.000 in 0.00 W/m2
00:14 53.0 °F 38.0 °F 29.9 in ESE 7 mph 6 mph 56% 0.000 in 0.00 W/m2
00:19 53.0 °F 39.0 °F 29.9 in East 6 mph 7 mph 58% 0.000 in 0.00 W/m2
00:24 53.0 °F 39.0 °F 29.9 in South 7 mph 6 mph 58% 0.000 in 0.00 W/m2
00:29 53.0 °F 39.0 °F 29.9 in ESE 6 mph 7 mph 58% 0.000 in 0.00 W/m2
00:34 53.0 °F 39.0 °F 29.9 in SE 9 mph 2 mph 58% 0.000 in 0.00 W/m2
00:39 53.0 °F 39.0 °F 30.0 in East 9 mph 9 mph 59% 0.000 in 0.00 W/m2
00:44 53.0 °F 39.0 °F 30.0 in Calm   3 mph 59% 0.000 in 0.00 W/m2
00:49 53.0 °F 38.0 °F 30.0 in SE 5 mph 2 mph 58% 0.000 in 0.00 W/m2
00:54 53.0 °F 38.0 °F 30.0 in SE 6 mph 6 mph 58% 0.000 in 0.00 W/m2
00:59 53.0 °F 39.0 °F 30.0 in SE 2 mph 6 mph 59% 0.000 in 0.00 W/m2
01:04 52.0 °F 39.0 °F 30.0 in Calm   2 mph 60% 0.000 in 0.00 W/m2
01:09 52.0 °F 39.0 °F 30.0 in SSE 4 mph 1 mph 60% 0.000 in 0.00 W/m2
01:14 52.0 °F 39.0 °F 30.0 in ESE 6 mph 3 mph 60% 0.000 in 0.00 W/m2
01:19 52.0 °F 39.0 °F 30.0 in Calm   6 mph 60% 0.000 in 0.00 W/m2
01:23 52.0 °F 38.0 °F 30.0 in East 2 mph   59% 0.000 in 0.00 W/m2
01:29 52.0 °F 38.0 °F 30.0 in Calm   2 mph 60% 0.000 in 0.00 W/m2
01:34 52.0 °F 38.0 °F 30.0 in ESE 5 mph   60% 0.000 in 0.00 W/m2
01:39 52.0 °F 38.0 °F 30.0 in SE 6 mph 6 mph 60% 0.000 in 0.00 W/m2
01:44 51.0 °F 38.0 °F 30.0 in SE 2 mph 2 mph 61% 0.000 in 0.00 W/m2
01:49 51.0 °F 38.0 °F 30.0 in SE 2 mph 2 mph 61% 0.000 in 0.00 W/m2
01:54 51.0 °F 38.0 °F 30.0 in ESE 4 mph 2 mph 61% 0.000 in 0.00 W/m2
01:59 51.0 °F 38.0 °F 30.0 in ESE 4 mph 3 mph 62% 0.000 in 0.00 W/m2
02:04 51.0 °F 38.0 °F 30.0 in ESE 7 mph 4 mph 62% 0.000 in 0.00 W/m2
02:09 51.0 °F 38.0 °F 30.0 in East 9 mph 7 mph 63% 0.000 in 0.00 W/m2
02:14 50.0 °F 38.0 °F 30.0 in SSE 4 mph 9 mph 63% 0.000 in 0.00 W/m2
02:19 50.0 °F 38.0 °F 30.0 in ESE 4 mph 3 mph 64% 0.000 in 0.00 W/m2
02:24 50.0 °F 38.0 °F 30.0 in East 6 mph 3 mph 64% 0.000 in 0.00 W/m2
02:29 50.0 °F 38.0 °F 30.0 in South 4 mph 6 mph 65% 0.000 in 0.00 W/m2
02:34 50.0 °F 38.0 °F 30.0 in South 4 mph 3 mph 65% 0.000 in 0.00 W/m2
02:39 50.0 °F 38.0 °F 30.0 in South 2 mph 3 mph 65% 0.000 in 0.00 W/m2
02:44 49.0 °F 38.0 °F 30.0 in SE 4 mph 3 mph 65% 0.000 in 0.00 W/m2
02:49 49.0 °F 38.0 °F 30.0 in SE 4 mph 2 mph 65% 0.000 in 0.00 W/m2
02:54 49.0 °F 38.0 °F 30.0 in East 11 mph 5 mph 66% 0.000 in 0.00 W/m2
02:59 49.0 °F 38.0 °F 30.0 in SSE 7 mph 10 mph 66% 0.000 in 0.00 W/m2
03:04 49.0 °F 38.0 °F 30.0 in SE 11 mph 7 mph 66% 0.000 in 0.00 W/m2
03:09 49.0 °F 38.0 °F 30.0 in SSE 4 mph 10 mph 66% 0.000 in 0.00 W/m2
03:14 49.0 °F 38.0 °F 30.0 in Calm   3 mph 67% 0.000 in 0.00 W/m2
03:19 49.0 °F 38.0 °F 30.0 in East 2 mph 2 mph 68% 0.000 in 0.00 W/m2
03:24 49.0 °F 39.0 °F 30.0 in East 2 mph 1 mph 69% 0.000 in 0.00 W/m2
03:29 49.0 °F 38.0 °F 30.0 in SE 4 mph 2 mph 68% 0.000 in 0.00 W/m2
03:34 49.0 °F 39.0 °F 30.0 in SSW 4 mph 3 mph 69% 0.000 in 0.00 W/m2
03:39 48.0 °F 38.0 °F 30.0 in SE 4 mph 3 mph 67% 0.000 in 0.00 W/m2
03:44 48.0 °F 38.0 °F 30.0 in ESE 4 mph 1 mph 67% 0.000 in 0.00 W/m2
03:49 48.0 °F 38.0 °F 30.0 in ESE 2 mph 3 mph 68% 0.000 in 0.00 W/m2
03:54 48.0 °F 38.0 °F 30.0 in Calm   2 mph 68% 0.000 in 0.00 W/m2
03:59 48.0 °F 38.0 °F 30.0 in East 4 mph 1 mph 68% 0.000 in 0.00 W/m2
04:04 48.0 °F 38.0 °F 30.0 in East 4 mph 3 mph 68% 0.000 in 0.00 W/m2
04:09 48.0 °F 38.0 °F 30.0 in SSE 2 mph 2 mph 68% 0.000 in 0.00 W/m2
04:14 48.0 °F 38.0 °F 30.0 in Calm   2 mph 68% 0.000 in 0.00 W/m2
04:19 48.0 °F 38.0 °F 30.0 in SSE 2 mph   67% 0.000 in 0.00 W/m2
04:24 48.0 °F 38.0 °F 30.0 in Calm     67% 0.000 in 0.00 W/m2
04:29 48.0 °F 37.0 °F 30.0 in Calm     67% 0.000 in 0.00 W/m2
04:34 48.0 °F 37.0 °F 30.0 in SE 2 mph 1 mph 67% 0.000 in 0.00 W/m2
04:39 48.0 °F 38.0 °F 30.0 in SE 2 mph 2 mph 68% 0.000 in 0.00 W/m2
04:44 48.0 °F 37.0 °F 30.0 in Calm   2 mph 67% 0.000 in 0.00 W/m2
04:49 48.0 °F 38.0 °F 30.0 in Calm     68% 0.000 in 0.00 W/m2
04:54 48.0 °F 38.0 °F 30.0 in SE 2 mph   68% 0.000 in 0.00 W/m2
04:59 48.0 °F 37.0 °F 30.0 in SE 2 mph 2 mph 67% 0.000 in 0.00 W/m2
05:04 47.0 °F 37.0 °F 30.0 in SE 4 mph 1 mph 67% 0.000 in 0.00 W/m2
05:09 47.0 °F 37.0 °F 30.0 in SE 4 mph 3 mph 68% 0.000 in 0.00 W/m2
05:14 47.0 °F 37.0 °F 30.0 in Calm   2 mph 69% 0.000 in 0.00 W/m2
05:19 47.0 °F 37.0 °F 30.0 in Calm     69% 0.000 in 0.00 W/m2
05:24 47.0 °F 37.0 °F 30.0 in Calm     69% 0.000 in 0.00 W/m2
05:29 47.0 °F 37.0 °F 30.0 in Calm     69% 0.000 in 0.00 W/m2
05:34 47.0 °F 37.0 °F 30.0 in Calm     69% 0.000 in 0.00 W/m2
05:39 47.0 °F 37.0 °F 30.0 in SE 2 mph   69% 0.000 in 0.00 W/m2
05:44 46.0 °F 37.0 °F 30.0 in SE 2 mph 2 mph 70% 0.000 in 0.00 W/m2
05:49 46.0 °F 37.0 °F 30.0 in SE 4 mph 2 mph 70% 0.000 in 0.00 W/m2
05:54 46.0 °F 38.0 °F 30.0 in ESE 7 mph 3 mph 73% 0.000 in 5.00 W/m2
05:59 46.0 °F 38.0 °F 30.0 in SE 4 mph 7 mph 72% 0.000 in 5.00 W/m2
06:04 46.0 °F 37.0 °F 30.0 in SE 4 mph 3 mph 72% 0.000 in 7.00 W/m2
06:09 46.0 °F 38.0 °F 30.0 in Calm   3 mph 73% 0.000 in 9.00 W/m2
06:14 46.0 °F 38.0 °F 30.0 in Calm     74% 0.000 in 9.00 W/m2
06:19 46.0 °F 37.0 °F 30.0 in Calm     72% 0.000 in 11.00 W/m2
06:24 46.0 °F 37.0 °F 30.0 in Calm     72% 0.000 in 12.00 W/m2
06:29 46.0 °F 37.0 °F 30.0 in SE 2 mph   73% 0.000 in 14.00 W/m2
06:34 46.0 °F 37.0 °F 30.0 in ESE 5 mph 2 mph 73% 0.000 in 14.00 W/m2
06:39 46.0 °F 38.0 °F 30.0 in ESE 6 mph 6 mph 74% 0.000 in 16.00 W/m2
06:44 46.0 °F 38.0 °F 30.0 in ESE 6 mph 3 mph 74% 0.000 in 18.00 W/m2
06:49 46.0 °F 38.0 °F 30.0 in ESE 7 mph 6 mph 73% 0.000 in 18.00 W/m2
06:54 46.0 °F 38.0 °F 30.0 in ESE 7 mph 7 mph 75% 0.000 in 19.00 W/m2
06:59 46.0 °F 38.0 °F 30.0 in East 7 mph 7 mph 75% 0.000 in 21.00 W/m2
07:04 46.0 °F 38.0 °F 30.0 in ESE 7 mph 6 mph 74% 0.000 in 19.00 W/m2
07:09 46.0 °F 38.0 °F 30.1 in ESE 7 mph 7 mph 73% 0.000 in 21.00 W/m2
07:14 46.0 °F 39.0 °F 30.1 in East 16 mph 7 mph 74% 0.000 in 21.00 W/m2
07:19 47.0 °F 39.0 °F 30.1 in ESE 11 mph 16 mph 74% 0.000 in 23.00 W/m2
07:24 47.0 °F 39.0 °F 30.1 in East 9 mph 10 mph 74% 0.000 in 23.00 W/m2
07:29 47.0 °F 39.0 °F 30.1 in ESE 7 mph 9 mph 73% 0.000 in 23.00 W/m2
07:34 47.0 °F 39.0 °F 30.1 in ESE 9 mph 7 mph 73% 0.000 in 25.00 W/m2
07:39 47.0 °F 39.0 °F 30.1 in ESE 13 mph 9 mph 72% 0.000 in 26.00 W/m2
07:44 48.0 °F 39.0 °F 30.1 in SE 9 mph 13 mph 72% 0.000 in 28.00 W/m2
07:49 48.0 °F 40.0 °F 30.1 in NE 4 mph 9 mph 73% 0.000 in 30.00 W/m2
07:54 48.0 °F 40.0 °F 30.1 in NNW 4 mph 3 mph 73% 0.000 in 63.00 W/m2
07:59 48.0 °F 40.0 °F 30.1 in ESE 7 mph 3 mph 72% 0.000 in 32.00 W/m2
08:04 49.0 °F 39.0 °F 30.1 in East 11 mph 7 mph 71% 0.000 in 33.00 W/m2
08:09 49.0 °F 40.0 °F 30.1 in SE 6 mph 10 mph 70% 0.000 in 40.00 W/m2
08:14 49.0 °F 40.0 °F 30.1 in East 11 mph 6 mph 70% 0.000 in 120.00 W/m2
08:19 50.0 °F 40.0 °F 30.1 in ESE 9 mph 10 mph 69% 0.000 in 109.00 W/m2
08:24 50.0 °F 40.0 °F 30.1 in SE 13 mph 8 mph 68% 0.000 in 81.00 W/m2
08:29 51.0 °F 40.0 °F 30.1 in SSE 4 mph 13 mph 67% 0.000 in 104.00 W/m2
08:34 51.0 °F 40.0 °F 30.1 in SW 9 mph 3 mph 67% 0.000 in 533.00 W/m2
08:39 51.0 °F 40.0 °F 30.1 in South 7 mph 9 mph 67% 0.000 in 547.00 W/m2
08:44 52.0 °F 40.0 °F 30.1 in SW 2 mph 6 mph 65% 0.000 in 568.00 W/m2
08:49 53.0 °F 40.0 °F 30.1 in East 13 mph 9 mph 64% 0.000 in 580.00 W/m2
08:54 53.0 °F 39.0 °F 30.1 in East 13 mph 13 mph 60% 0.000 in 580.00 W/m2
08:59 54.0 °F 40.0 °F 30.1 in SSE 6 mph 9 mph 59% 0.000 in 613.00 W/m2
09:04 54.0 °F 40.0 °F 30.1 in SE 14 mph 14 mph 59% 0.000 in 629.00 W/m2
09:09 55.0 °F 40.0 °F 30.1 in SSW 6 mph 9 mph 59% 0.000 in 645.00 W/m2
09:14 55.0 °F 40.0 °F 30.1 in SSW 6 mph 6 mph 57% 0.000 in 657.00 W/m2
09:19 55.0 °F 40.0 °F 30.1 in NE 16 mph 6 mph 57% 0.000 in 670.00 W/m2
09:24 56.0 °F 40.0 °F 30.1 in SSE 11 mph 16 mph 56% 0.000 in 687.00 W/m2
09:29 56.0 °F 40.0 °F 30.1 in SW 9 mph 10 mph 56% 0.000 in 701.00 W/m2
09:34 56.0 °F 40.0 °F 30.1 in WNW 12 mph 9 mph 55% 0.000 in 715.00 W/m2
09:39 57.0 °F 41.0 °F 30.1 in NNE 19 mph 13 mph 56% 0.000 in 728.00 W/m2
09:44 57.0 °F 41.0 °F 30.1 in WSW 20 mph 20 mph 55% 0.000 in 740.00 W/m2
09:49 58.0 °F 40.0 °F 30.1 in SW 17 mph 17 mph 52% 0.000 in 752.00 W/m2
09:54 58.0 °F 39.0 °F 30.1 in SSW 18 mph 17 mph 50% 0.000 in 765.00 W/m2
09:59 58.0 °F 40.0 °F 30.1 in West 7 mph 9 mph 51% 0.000 in 775.00 W/m2
10:04 58.0 °F 39.0 °F 30.1 in SSW 21 mph 9 mph 48% 0.000 in 788.00 W/m2
10:09 59.0 °F 40.0 °F 30.1 in SSE 7 mph 21 mph 49% 0.000 in 800.00 W/m2
10:14 59.0 °F 40.0 °F 30.1 in SSW 11 mph 9 mph 49% 0.000 in 812.00 W/m2
10:19 59.0 °F 38.0 °F 30.1 in WSW 11 mph 10 mph 46% 0.000 in 821.00 W/m2
10:24 59.0 °F 39.0 °F 30.1 in SW 16 mph 14 mph 46% 0.000 in 821.00 W/m2
10:29 60.0 °F 39.0 °F 30.1 in SSW 13 mph 16 mph 46% 0.000 in 846.00 W/m2
10:34 60.0 °F 39.0 °F 30.1 in South 11 mph 13 mph 47% 0.000 in 856.00 W/m2
10:39 61.0 °F 41.0 °F 30.1 in South 13 mph 10 mph 48% 0.000 in 865.00 W/m2
10:44 61.0 °F 40.0 °F 30.1 in ESE 7 mph 13 mph 46% 0.000 in 875.00 W/m2
10:49 61.0 °F 40.0 °F 30.1 in West 9 mph 7 mph 45% 0.000 in 888.00 W/m2
10:54 62.0 °F 40.0 °F 30.1 in SSE 16 mph 9 mph 45% 0.000 in 896.00 W/m2
10:59 62.0 °F 39.0 °F 30.1 in South 9 mph 16 mph 42% 0.000 in 905.00 W/m2
11:04 63.0 °F 40.0 °F 30.1 in SE 14 mph 9 mph 43% 0.000 in 912.00 W/m2
11:09 63.0 °F 40.0 °F 30.1 in SSW 11 mph 14 mph 43% 0.000 in 919.00 W/m2
11:13 63.0 °F 40.0 °F 30.1 in ESE 13 mph 12 mph 43% 0.000 in 928.00 W/m2
11:19 64.0 °F 40.0 °F 30.1 in ESE 9 mph 13 mph 43% 0.000 in 935.00 W/m2
11:24 64.0 °F 39.0 °F 30.1 in WSW 13 mph 9 mph 41% 0.000 in 939.00 W/m2
11:29 64.0 °F 39.0 °F 30.1 in WSW 13 mph 13 mph 40% 0.000 in 946.00 W/m2
11:34 64.0 °F 39.0 °F 30.1 in West 16 mph 16 mph 40% 0.000 in 951.00 W/m2
11:39 63.0 °F 39.0 °F 30.1 in SW 7 mph 16 mph 41% 0.000 in 960.00 W/m2
11:44 64.0 °F 40.0 °F 30.1 in East 13 mph 8 mph 42% 0.000 in 965.00 W/m2
11:49 64.0 °F 39.0 °F 30.1 in ESE 10 mph 13 mph 40% 0.000 in 965.00 W/m2
11:54 64.0 °F 39.0 °F 30.1 in SE 13 mph 9 mph 40% 0.000 in 974.00 W/m2
11:59 65.0 °F 39.0 °F 30.1 in NNW 7 mph 13 mph 39% 0.000 in 974.00 W/m2
12:04 65.0 °F 40.0 °F 30.1 in SW 9 mph 8 mph 40% 0.000 in 981.00 W/m2
12:09 65.0 °F 38.0 °F 30.1 in SW 20 mph 14 mph 37% 0.000 in 984.00 W/m2
12:14 65.0 °F 39.0 °F 30.1 in South 11 mph 20 mph 39% 0.000 in 986.00 W/m2
12:19 65.0 °F 39.0 °F 30.1 in SW 16 mph 16 mph 38% 0.000 in 988.00 W/m2
12:24 65.0 °F 39.0 °F 30.1 in WSW 14 mph 14 mph 38% 0.000 in 990.00 W/m2
12:29 66.0 °F 40.0 °F 30.1 in SSW 9 mph 14 mph 40% 0.000 in 990.00 W/m2
12:34 66.0 °F 40.0 °F 30.1 in West 16 mph 14 mph 39% 0.000 in 995.00 W/m2
12:39 66.0 °F 40.0 °F 30.1 in SSW 13 mph 16 mph 38% 0.000 in 990.00 W/m2
12:44 66.0 °F 39.0 °F 30.1 in WNW 21 mph 15 mph 37% 0.000 in 990.00 W/m2
12:49 66.0 °F 39.0 °F 30.1 in South 11 mph 21 mph 37% 0.000 in 997.00 W/m2
12:54 66.0 °F 39.0 °F 30.1 in West 16 mph 13 mph 36% 0.000 in 991.00 W/m2
12:59 67.0 °F 39.0 °F 30.1 in SW 13 mph 16 mph 36% 0.000 in 990.00 W/m2
13:04 67.0 °F 39.0 °F 30.1 in WSW 16 mph 13 mph 36% 0.000 in 988.00 W/m2
13:09 67.0 °F 39.0 °F 30.1 in WSW 16 mph 16 mph 36% 0.000 in 990.00 W/m2
13:14 67.0 °F 39.0 °F 30.1 in WSW 16 mph 16 mph 36% 0.000 in 991.00 W/m2
13:19 67.0 °F 38.0 °F 30.1 in West 14 mph 16 mph 35% 0.000 in 984.00 W/m2
13:24 67.0 °F 38.0 °F 30.1 in WSW 18 mph 14 mph 34% 0.000 in 983.00 W/m2
13:29 67.0 °F 39.0 °F 30.1 in South 14 mph 17 mph 36% 0.000 in 981.00 W/m2
13:34 67.0 °F 40.0 °F 30.1 in SSW 21 mph 14 mph 37% 0.000 in 976.00 W/m2
13:39 67.0 °F 38.0 °F 30.1 in West 7 mph 21 mph 34% 0.000 in 976.00 W/m2
13:44 68.0 °F 40.0 °F 30.1 in West 11 mph 7 mph 36% 0.000 in 965.00 W/m2
13:49 68.0 °F 40.0 °F 30.1 in SSW 9 mph 10 mph 36% 0.000 in 963.00 W/m2
13:54 68.0 °F 40.0 °F 30.1 in West 20 mph 15 mph 35% 0.000 in 962.00 W/m2
13:59 68.0 °F 39.0 °F 30.1 in SW 10 mph 20 mph 34% 0.000 in 956.00 W/m2
14:04 69.0 °F 38.0 °F 30.1 in West 13 mph 12 mph 33% 0.000 in 947.00 W/m2
14:09 69.0 °F 39.0 °F 30.1 in WSW 21 mph 13 mph 34% 0.000 in 939.00 W/m2
14:14 69.0 °F 38.0 °F 30.1 in SW 13 mph 21 mph 33% 0.000 in 939.00 W/m2
14:19 69.0 °F 38.0 °F 30.1 in SW 13 mph 13 mph 33% 0.000 in 925.00 W/m2
14:24 69.0 °F 38.0 °F 30.1 in WSW 11 mph 13 mph 33% 0.000 in 923.00 W/m2
14:29 69.0 °F 39.0 °F 30.1 in SW 16 mph 10 mph 33% 0.000 in 914.00 W/m2
14:34 69.0 °F 39.0 °F 30.1 in SSW 18 mph 16 mph 33% 0.000 in 905.00 W/m2
14:39 70.0 °F 40.0 °F 30.1 in WSW 20 mph 17 mph 34% 0.000 in 891.00 W/m2
14:44 69.0 °F 37.0 °F 30.1 in SW 18 mph 20 mph 31% 0.000 in 889.00 W/m2
14:49 69.0 °F 39.0 °F 30.1 in SW 16 mph 17 mph 33% 0.000 in 879.00 W/m2
14:54 70.0 °F 38.0 °F 30.1 in SSW 11 mph 10 mph 32% 0.000 in 875.00 W/m2
14:59 70.0 °F 39.0 °F 30.1 in ESE 9 mph 6 mph 33% 0.000 in 863.00 W/m2
15:04 70.0 °F 38.0 °F 30.1 in South 11 mph 9 mph 31% 0.000 in 851.00 W/m2
15:09 71.0 °F 40.0 °F 30.1 in SSW 9 mph 10 mph 33% 0.000 in 844.00 W/m2
15:14 71.0 °F 38.0 °F 30.1 in SW 18 mph 13 mph 30% 0.000 in 830.00 W/m2
15:19 71.0 °F 39.0 °F 30.1 in East 5 mph 17 mph 31% 0.000 in 817.00 W/m2
15:24 71.0 °F 39.0 °F 30.1 in South 16 mph 6 mph 31% 0.000 in 812.00 W/m2
15:29 72.0 °F 39.0 °F 30.1 in ESE 11 mph 16 mph 30% 0.000 in 800.00 W/m2
15:34 72.0 °F 39.0 °F 30.1 in NE 7 mph 10 mph 30% 0.000 in 786.00 W/m2
15:39 72.0 °F 39.0 °F 30.1 in SE 11 mph 8 mph 30% 0.000 in 773.00 W/m2
15:44 72.0 °F 37.0 °F 30.1 in WSW 21 mph 15 mph 28% 0.000 in 766.00 W/m2
15:49 72.0 °F 37.0 °F 30.1 in West 20 mph 21 mph 28% 0.000 in 751.00 W/m2
15:54 71.0 °F 37.0 °F 30.1 in WSW 16 mph 16 mph 28% 0.000 in 737.00 W/m2
15:59 71.0 °F 36.0 °F 30.1 in SSW 16 mph 13 mph 28% 0.000 in 722.00 W/m2
16:04 71.0 °F 37.0 °F 30.1 in WSW 7 mph 16 mph 29% 0.000 in 708.00 W/m2
16:09 72.0 °F 38.0 °F 30.1 in SE 11 mph 9 mph 29% 0.000 in 694.00 W/m2
16:14 72.0 °F 37.0 °F 30.1 in SE 13 mph 10 mph 28% 0.000 in 679.00 W/m2
16:19 72.0 °F 36.0 °F 30.1 in WSW 9 mph 13 mph 27% 0.000 in 668.00 W/m2
16:24 72.0 °F 36.0 °F 30.1 in WSW 11 mph 9 mph 27% 0.000 in 654.00 W/m2
16:29 71.0 °F 35.0 °F 30.1 in SW 13 mph 10 mph 26% 0.000 in 638.00 W/m2
16:34 71.0 °F 37.0 °F 30.1 in NW 11 mph 13 mph 29% 0.000 in 622.00 W/m2
16:39 71.0 °F 36.0 °F 30.1 in West 9 mph 10 mph 28% 0.000 in 605.00 W/m2
16:44 71.0 °F 36.0 °F 30.1 in SW 11 mph 9 mph 28% 0.000 in 592.00 W/m2
16:49 71.0 °F 36.0 °F 30.1 in SSW 13 mph 10 mph 28% 0.000 in 575.00 W/m2
16:54 71.0 °F 36.0 °F 30.1 in East 7 mph 13 mph 28% 0.000 in 563.00 W/m2
16:59 71.0 °F 35.0 °F 30.1 in SW 9 mph 7 mph 27% 0.000 in 550.00 W/m2
17:04 71.0 °F 36.0 °F 30.1 in SW 9 mph 9 mph 27% 0.000 in 538.00 W/m2
17:09 71.0 °F 36.0 °F 30.1 in NNW 11 mph 8 mph 27% 0.000 in 517.00 W/m2
17:14 72.0 °F 35.0 °F 30.1 in WSW 11 mph 10 mph 26% 0.000 in 503.00 W/m2
17:19 72.0 °F 36.0 °F 30.1 in SSE 6 mph 10 mph 27% 0.000 in 489.00 W/m2
17:24 72.0 °F 36.0 °F 30.1 in WSW 11 mph 9 mph 27% 0.000 in 471.00 W/m2
17:29 71.0 °F 35.0 °F 30.1 in West 16 mph 11 mph 26% 0.000 in 454.00 W/m2
17:33 71.0 °F 34.0 °F 30.1 in WSW 13 mph 16 mph 26% 0.000 in 436.00 W/m2
17:39 71.0 °F 35.0 °F 30.1 in SW 21 mph 13 mph 27% 0.000 in 422.00 W/m2
17:44 70.0 °F 34.0 °F 30.1 in WSW 11 mph 21 mph 27% 0.000 in 406.00 W/m2
17:49 70.0 °F 35.0 °F 30.1 in SW 9 mph 9 mph 28% 0.000 in 390.00 W/m2
17:54 70.0 °F 35.0 °F 30.1 in WSW 11 mph 9 mph 28% 0.000 in 374.00 W/m2
17:59 69.0 °F 36.0 °F 30.1 in West 9 mph 10 mph 30% 0.000 in 359.00 W/m2
18:04 69.0 °F 35.0 °F 30.1 in SW 11 mph 9 mph 29% 0.000 in 141.00 W/m2
18:09 68.0 °F 35.0 °F 30.1 in WSW 11 mph 10 mph 29% 0.000 in 60.00 W/m2
18:14 68.0 °F 36.0 °F 30.1 in SE 6 mph 10 mph 31% 0.000 in 47.00 W/m2
18:19 67.0 °F 36.0 °F 30.1 in ESE 13 mph 6 mph 32% 0.000 in 46.00 W/m2
18:24 67.0 °F 37.0 °F 30.1 in SSE 9 mph 13 mph 33% 0.000 in 42.00 W/m2
18:29 67.0 °F 36.0 °F 30.1 in SSW 9 mph 9 mph 32% 0.000 in 39.00 W/m2
18:34 66.0 °F 36.0 °F 30.1 in SW 7 mph 9 mph 33% 0.000 in 35.00 W/m2
18:39 66.0 °F 36.0 °F 30.1 in WSW 9 mph 7 mph 34% 0.000 in 32.00 W/m2
18:44 65.0 °F 36.0 °F 30.1 in WSW 11 mph 9 mph 34% 0.000 in 44.00 W/m2
18:49 65.0 °F 36.0 °F 30.1 in WSW 7 mph 10 mph 34% 0.000 in 51.00 W/m2
18:54 65.0 °F 36.0 °F 30.1 in SW 6 mph 7 mph 34% 0.000 in 63.00 W/m2
18:59 65.0 °F 36.0 °F 30.1 in SW 9 mph 6 mph 35% 0.000 in 39.00 W/m2
19:04 64.0 °F 36.0 °F 30.1 in SSW 7 mph 9 mph 35% 0.000 in 35.00 W/m2
19:09 64.0 °F 36.0 °F 30.1 in South 9 mph 9 mph 35% 0.000 in 25.00 W/m2
19:14 64.0 °F 36.0 °F 30.1 in South 11 mph 9 mph 36% 0.000 in 21.00 W/m2
El Dorado Weather
Compliments of Weather Underground - 2 mb